[[{"header":{"parameterUnit":"m.s-1","parameterCategory":1,"la1":30.2991,"la2":30.254,"lo1":-89.0895,"lo2":-89.0444,"dy":0.0017,"dx":0.0017,"nx":28,"ny":28,"refTime":"2024-08-25T03:00:00:Z","depth":0,"parameterNumber":2,"parameterNumberName":"U-component_of_WINDS"},"data":[0,0,0,0,0,0,0,0,0,0,0,0,0,0,0,0,0,0,0,0,0,0,0,0,0,0,0,0,0,0,0,0,0,0,0,0,0,0,0,0,0,0,0,0,0,0,0,0,0,0,0,0,0,0,0,0,0,0,-0.9212,-0.9213,0,-0.9229,-0.9229,-0.9229,-0.9202,-0.9202,-0.9201,-0.92,-0.9218,-0.9219,-0.922,0,0,0,0,0,0,0,0,0,0,0,0,0,-0.9159,-0.916,-0.9212,-0.9213,-0.9213,-0.9229,-0.9229,-0.9229,-0.9203,-0.9202,-0.92,-0.9199,-0.9217,-0.9219,-0.922,0,0,0,0,0,0,0,0,0,0,0,0,0,-0.918,-0.9161,-0.9212,-0.9201,-0.9201,-0.9229,-0.9229,-0.9229,-0.9203,-0.9202,-0.92,-0.9199,-0.9217,-0.9219,-0.9221,-0.926,0,0,-0.9227,-0.9228,0,0,0,0,0,0,0,0,-0.9179,-0.9182,-0.9203,-0.9202,-0.9201,-0.9212,-0.9217,-0.924,-0.9203,-0.9202,-0.92,-0.9198,-0.9217,-0.9219,-0.9225,-0.9261,-0.9262,-0.9227,-0.9228,-0.9229,-0.9229,0,0,0,0,0,0,0,-0.9177,-0.9181,-0.9219,-0.9203,-0.9202,-0.9196,-0.9198,-0.9221,-0.9217,-0.9202,-0.92,-0.9202,-0.9216,-0.9223,-0.9225,-0.9262,-0.9227,-0.9229,-0.923,-0.9231,-0.9333,-0.9334,0,0,0,0,0,0,-0.9177,-0.918,-0.9218,-0.9219,-0.9186,-0.9198,-0.92,-0.921,-0.9217,-0.9216,-0.9204,-0.9201,-0.922,-0.9223,-0.9226,-0.9273,-0.9229,-0.9231,-0.9232,-0.9331,-0.9333,-0.9335,0,0,0,0,0,0,-0.9176,-0.9181,-0.9218,-0.9199,-0.9203,-0.9201,-0.9212,-0.9211,-0.9218,-0.9218,-0.9217,-0.9211,-0.9219,-0.9223,-0.9252,-0.9273,-0.9232,-0.9233,-0.9329,-0.9332,-0.9334,-0.9368,0,0,0,0,0,0,-0.9175,-0.918,-0.9195,-0.92,-0.9204,-0.9244,-0.9214,-0.9213,-0.9221,-0.9218,-0.9225,-0.9225,-0.9219,-0.9249,-0.9254,-0.9275,-0.9235,-0.9327,-0.933,-0.9333,-0.9365,-0.9372,-0.9377,0,0,0,0,0,-0.9173,-0.9205,-0.9196,-0.9201,-0.9223,-0.9245,-0.9248,-0.924,-0.9223,-0.9238,-0.9238,-0.9224,-0.927,-0.9252,-0.9258,-0.928,-0.9326,-0.933,-0.9333,-0.9363,-0.937,-0.9377,0,0,0,0,0,0,-0.9203,-0.9205,-0.9196,-0.923,-0.9237,-0.924,-0.9259,-0.9248,-0.9261,-0.9257,-0.9247,-0.9249,-0.9281,-0.9283,-0.9263,-0.9319,-0.9295,-0.93,-0.9316,-0.9324,-0.9329,-0.9328,-0.9237,0,0,0,0,0,-0.9214,-0.9231,-0.9232,-0.9262,-0.9266,-0.9262,-0.9271,-0.9265,-0.9272,-0.9275,-0.9277,-0.9286,-0.9302,-0.9313,-0.9328,-0.9365,-0.9367,-0.9383,-0.9389,-0.9394,-0.9398,-0.9419,-0.9426,-0.9346,-0.9346,-0.9346,0,0,-0.9236,-0.9239,-0.9251,-0.9268,-0.9273,-0.9292,-0.9265,-0.9286,-0.9299,-0.9279,-0.9306,-0.9308,-0.9317,-0.935,-0.9365,-0.9353,-0.9421,-0.9398,-0.9402,-0.9404,-0.9423,-0.9431,-0.9438,-0.9348,-0.9348,-0.9347,0,0,-0.9286,-0.929,-0.9316,-0.9321,-0.9329,-0.9326,-0.9332,-0.9337,-0.9337,-0.9365,-0.935,-0.9366,-0.9394,-0.9401,-0.9408,-0.9461,-0.9449,-0.9466,-0.9497,-0.9517,-0.9523,-0.9529,-0.9548,-0.9555,-0.9471,-0.9471,-0.9471,0,-0.9313,-0.934,-0.933,-0.9352,-0.936,-0.9342,-0.9368,-0.9374,-0.9387,-0.9393,-0.938,-0.9415,-0.9419,-0.9454,-0.9467,-0.9474,-0.9481,-0.9466,-0.9523,-0.9529,-0.9534,-0.9552,-0.9559,-0.9473,-0.9472,-0.9472,-0.9472,0,-0.9373,-0.9392,-0.9412,-0.9424,-0.9434,-0.9458,-0.9453,-0.9464,-0.9457,-0.9456,-0.9484,-0.9489,-0.9504,-0.9512,-0.9505,-0.9547,-0.9539,-0.9525,-0.9501,-0.9544,-0.9561,-0.9568,-0.9476,-0.9475,-0.9474,-0.9474,0,0,-0.9443,-0.9449,-0.9457,-0.9462,-0.947,-0.9484,-0.9508,-0.9523,-0.9533,-0.9543,-0.9562,-0.9586,-0.9573,-0.9581,-0.9575,-0.9592,-0.9635,-0.9576,-0.9576,-0.9587,-0.9681,-0.9693,-0.9701,-0.9626,-0.9628,-0.9629,-0.9681,0,-0.9493,-0.9533,-0.9525,-0.9564,-0.9582,-0.9564,-0.9585,-0.9592,-0.9591,-0.9606,-0.9606,-0.9623,-0.9604,-0.9609,-0.9626,-0.9626,-0.9654,-0.9622,-0.9645,-0.9646,-0.9644,-0.971,-0.9722,-0.9771,-0.9687,-0.9688,-0.9689,0,-0.9557,-0.9569,-0.961,-0.9614,-0.9621,-0.964,-0.9653,-0.9667,-0.9675,-0.9673,-0.9683,-0.9673,-0.9696,-0.9672,-0.9705,-0.9683,-0.9692,-0.9694,-0.9696,-0.9698,-0.9671,-0.9714,-0.9786,-0.9794,-0.97,-0.9699,-0.9698,0,-0.9605,-0.9631,-0.9658,-0.9664,-0.9669,-0.9683,-0.9686,-0.9692,-0.9702,-0.9714,-0.972,-0.9734,-0.9743,-0.9754,-0.9749,-0.9731,-0.9783,-0.9757,-0.9782,-0.9783,-0.9795,-0.9794,-0.9869,-0.9799,-0.9799,-0.9799,-0.9799,0,-0.9663,-0.9688,-0.968,-0.9697,-0.9726,-0.9716,-0.9745,-0.9746,-0.9752,-0.9769,-0.9755,-0.9772,-0.9763,-0.978,-0.9776,-0.9804,-0.9807,-0.9807,-0.9806,-0.9809,-0.9809,-0.9815,-0.9811,-0.9801,-0.9801,-0.98,-0.98,0,-0.9721,-0.9717,-0.9746,-0.9749,-0.975,-0.9771,-0.9774,-0.979,-0.9788,-0.9811,-0.9815,-0.9813,-0.9831,-0.9827,-0.9847,-0.9844,-0.988,-0.9874,-0.9877,-0.9876,-0.9901,-0.9899,-0.9984,-0.9995,-0.9917,-0.9918,-0.9919,0,-0.9759,-0.9778,-0.9783,-0.9793,-0.9797,-0.9814,-0.9824,-0.9816,-0.9826,-0.9837,-0.9852,-0.9869,-0.9882,-0.9913,-0.9913,-0.9928,-0.9923,-0.9952,-0.9925,-0.9928,-0.9924,-0.9923,-0.9926,-0.9957,-0.9958,-0.9959,-0.9959,0,-0.9826,-0.9822,-0.9836,-0.985,-0.9862,-0.9872,-0.9881,-0.9891,-0.9883,-0.9896,-0.9914,-0.9924,-0.9945,-0.9962,-0.9976,-0.998,-0.9969,-0.9967,-0.9974,-0.9978,-0.9979,-0.9979,-0.9892,-0.9966,-0.9965,-0.9964,-0.9964,-0.9964,-0.9875,-0.9892,-0.9898,-0.9914,-0.992,-0.9929,-0.9944,-0.9944,-0.9959,-0.9975,-0.9969,-0.999,-0.9998,-1.0015,-1.0021,-1.0038,-1.0027,-1.0037,-1.0039,-1.0042,-1.0045,-0.9976,-1.004,-1.004,-1.004,-1.004,-1.004,0,-0.9942,-0.9945,-0.996,-0.9973,-0.9986,-0.9973,-0.9982,-0.9994,-1.0013,-1.0021,-1.0034,-1.0055,-1.0072,-1.0073,-1.0089,-1.0103,-1.0098,-1.0107,-1.0107,-1.0108,-1.0054,-1.0047,-1.0111,-1.0111,-1.0111,-1.0111,-1.0111,-1.0111,-0.9979,-1.0006,-1.0003,-1.0033,-1.0036,-1.0057,-1.0063,-1.0071,-1.0077,-1.0102,-1.0115,-1.0116,-1.0121,-1.0137,-1.0152,-1.0152,-1.0159,-1.0171,-1.0169,-1.0118,-1.0111,-1.0105,-1.0098,-1.0172,-1.0172,-1.0221,-1.0222,-1.0222]},{"header":{"parameterUnit":"m.s-1","parameterCategory":1,"la1":30.2991,"la2":30.254,"lo1":-89.0895,"lo2":-89.0444,"dy":0.0017,"dx":0.0017,"nx":28,"ny":28,"refTime":"2024-08-25T03:00:00:Z","depth":0,"parameterNumber":3,"parameterNumberName":"V-component_of_WINDS"},"data":[0,0,0,0,0,0,0,0,0,0,0,0,0,0,0,0,0,0,0,0,0,0,0,0,0,0,0,0,0,0,0,0,0,0,0,0,0,0,0,0,0,0,0,0,0,0,0,0,0,0,0,0,0,0,0,0,0,0,2.1317,2.1317,0,2.1322,2.1322,2.1322,2.129,2.1289,2.1288,2.1287,2.1291,2.1292,2.1293,0,0,0,0,0,0,0,0,0,0,0,0,0,2.1279,2.128,2.1317,2.1317,2.1317,2.1322,2.1322,2.1322,2.129,2.1289,2.1287,2.1286,2.1291,2.1292,2.1293,0,0,0,0,0,0,0,0,0,0,0,0,0,2.1291,2.128,2.1317,2.1302,2.13,2.1322,2.1322,2.1322,2.129,2.1289,2.1287,2.1286,2.1291,2.1292,2.1294,2.133,0,0,2.1298,2.1299,0,0,0,0,0,0,0,0,2.129,2.1292,2.1304,2.1303,2.1301,2.1304,2.131,2.1325,2.129,2.1294,2.1287,2.1285,2.1297,2.1297,2.1301,2.133,2.1331,2.1298,2.1299,2.13,2.13,0,0,0,0,0,0,0,2.1289,2.1292,2.1319,2.1304,2.1303,2.1294,2.1294,2.1313,2.1303,2.1293,2.1291,2.1292,2.1296,2.13,2.1301,2.1331,2.1298,2.1299,2.13,2.1301,2.1389,2.139,0,0,0,0,0,0,2.1291,2.1291,2.1319,2.1319,2.1292,2.1296,2.1296,2.1304,2.1303,2.1301,2.1293,2.1291,2.1298,2.13,2.1301,2.1343,2.13,2.1301,2.1302,2.1388,2.1389,2.1391,0,0,0,0,0,0,2.129,2.1293,2.1319,2.1305,2.1307,2.1298,2.1308,2.1305,2.131,2.1303,2.13,2.13,2.1297,2.1299,2.1323,2.1343,2.1302,2.1303,2.1386,2.1388,2.139,2.1428,0,0,0,0,0,0,2.1289,2.1293,2.1307,2.1305,2.1308,2.1341,2.1309,2.1306,2.1312,2.1309,2.1308,2.1307,2.1296,2.1321,2.1325,2.1344,2.1304,2.1384,2.1387,2.1389,2.1425,2.1431,2.1436,0,0,0,0,0,2.1288,2.1318,2.1308,2.1312,2.1326,2.1342,2.1344,2.1331,2.1314,2.1328,2.1323,2.1307,2.1341,2.1324,2.1327,2.1348,2.1383,2.1386,2.1389,2.1422,2.143,2.1436,0,0,0,0,0,0,2.1323,2.1317,2.1307,2.1337,2.134,2.1336,2.1353,2.134,2.1348,2.1344,2.1329,2.1329,2.1355,2.1354,2.1335,2.1383,2.1358,2.1363,2.1382,2.1389,2.1395,2.1394,2.1305,0,0,0,0,0,2.1334,2.1348,2.1343,2.137,2.1372,2.1363,2.1369,2.136,2.1362,2.1363,2.136,2.1363,2.1374,2.1382,2.1392,2.1425,2.1424,2.1441,2.1446,2.1451,2.1455,2.1471,2.1478,2.1402,2.1402,2.1402,0,0,2.1357,2.1356,2.1366,2.1377,2.1378,2.1392,2.1364,2.1381,2.1391,2.1366,2.1388,2.1386,2.1388,2.1416,2.1428,2.1416,2.1476,2.1455,2.1459,2.146,2.1475,2.1482,2.1489,2.1404,2.1404,2.1403,0,0,2.1407,2.1408,2.143,2.1432,2.1434,2.1428,2.1433,2.1432,2.1429,2.1451,2.1432,2.1445,2.1464,2.1466,2.147,2.152,2.1505,2.1524,2.1554,2.157,2.1576,2.1581,2.1598,2.1604,2.1528,2.1528,2.1528,0,2.1435,2.1456,2.1443,2.1461,2.1466,2.1444,2.1466,2.1469,2.1474,2.1478,2.1464,2.1488,2.1488,2.1516,2.1528,2.1533,2.1538,2.1523,2.1576,2.1581,2.1586,2.1602,2.1608,2.153,2.153,2.153,2.1529,0,2.1491,2.1506,2.1524,2.1529,2.1536,2.1556,2.1546,2.1555,2.1544,2.1539,2.1561,2.1561,2.157,2.1576,2.1566,2.1602,2.1595,2.1579,2.1554,2.1596,2.161,2.1616,2.1533,2.1533,2.1532,2.1531,0,0,2.1562,2.156,2.1566,2.1568,2.1569,2.158,2.1599,2.1608,2.1615,2.162,2.1635,2.1652,2.1637,2.1642,2.1632,2.1646,2.1685,2.1629,2.1629,2.1638,2.1723,2.1734,2.1741,2.1675,2.1676,2.1677,2.1722,0,2.1609,2.1641,2.1629,2.1662,2.1675,2.1654,2.167,2.1673,2.1668,2.1679,2.1674,2.1686,2.1666,2.1669,2.1682,2.1677,2.1701,2.1674,2.1688,2.1688,2.1686,2.1749,2.176,2.1803,2.1728,2.1729,2.173,0,2.1668,2.1675,2.1709,2.1706,2.1711,2.1726,2.1733,2.1743,2.1745,2.1741,2.1746,2.1733,2.1751,2.1727,2.1751,2.1733,2.1738,2.1736,2.1738,2.1737,2.1711,2.1749,2.1817,2.1823,2.1739,2.1738,2.1738,0,2.1715,2.1733,2.1755,2.1757,2.1756,2.1766,2.1766,2.1767,2.1773,2.1779,2.1782,2.179,2.1795,2.1801,2.1791,2.1775,2.1816,2.1791,2.1812,2.1812,2.1821,2.182,2.1889,2.1826,2.1826,2.1826,2.1826,0,2.1768,2.1789,2.1775,2.1789,2.1811,2.1798,2.1821,2.1819,2.1819,2.1832,2.1815,2.1827,2.1813,2.1824,2.1816,2.1836,2.1839,2.1835,2.1833,2.1836,2.1836,2.1838,2.1834,2.1828,2.1828,2.1827,2.1827,0,2.1824,2.1816,2.1838,2.1835,2.1834,2.1851,2.1848,2.186,2.1855,2.1871,2.1874,2.1865,2.1877,2.1867,2.1879,2.1873,2.19,2.1894,2.1899,2.1897,2.1918,2.1915,2.1989,2.1997,2.1931,2.1932,2.1932,0,2.1858,2.1873,2.1872,2.1879,2.1879,2.1891,2.1897,2.1885,2.1891,2.1894,2.1906,2.1916,2.1923,2.1942,2.1937,2.1945,2.1939,2.1964,2.194,2.1942,2.1937,2.1936,2.1937,2.1968,2.1969,2.197,2.197,0,2.1918,2.1913,2.1922,2.193,2.1937,2.1942,2.1946,2.1953,2.1941,2.1949,2.196,2.1966,2.1977,2.1987,2.1994,2.1993,2.1979,2.1978,2.1983,2.1986,2.1988,2.1986,2.1911,2.1976,2.1976,2.1975,2.1975,2.1975,2.1963,2.1976,2.1976,2.1986,2.1988,2.1992,2.2003,2.1999,2.2008,2.2016,2.2009,2.2022,2.2023,2.2031,2.2032,2.2042,2.2032,2.2039,2.2041,2.2043,2.2045,2.1987,2.2044,2.2043,2.2043,2.2043,2.2043,0,2.2022,2.2021,2.2031,2.2036,2.2044,2.2031,2.2035,2.2042,2.2054,2.2057,2.2064,2.2077,2.2086,2.2082,2.209,2.2099,2.2093,2.2101,2.21,2.21,2.2055,2.2049,2.2106,2.2106,2.2106,2.2106,2.2106,2.2106,2.2053,2.2073,2.2068,2.2088,2.2088,2.21,2.2104,2.2107,2.2108,2.2123,2.2131,2.2128,2.2128,2.2135,2.2143,2.2142,2.2145,2.2156,2.2152,2.2109,2.2103,2.2097,2.2091,2.2157,2.2157,2.2196,2.2196,2.2197]}]]